SOYUZ-MS 20 (49922 NORAD) Tracking and Keplerian Element Data

This shows tracking and keplerian element data for the satellite.

Feedback or suggestion? Click here.




ElementValue
Catalog49922
NameSOYUZ-MS 20
Epoch Orbit31732
Epoch Day353.5505127
Epoch Year2021
RAAN146.1522
Inclination51.639
Eccentricity0.0004431
Argument of Perigee333.7644
Mean Anonmoly141.6223
Mean Motion15.4897071
Decay Rate-0.00021572
L11 49922U 21119A 21353.55051270 -.00021572 00000+0 -38473-3 0 9995
L22 49922 51.6390 146.1522 0004431 333.7644 141.6223 15.48970710317322



Live tracking and technical data element details for SOYUZ-MS 20 (NORAD 49922). SOYUZ-MS 20 can be tracked NOW for your location showing map with azimuth and elevation plus other details from your city location.







IsCatalogInMostPopularTable: catalog: 49922, numindb: 34
Update: records affected: 1



GetName: 49922 SOYUZ-MS 20

Hit Count: updated at: Sun, 28 May 2023 20:28:38 GMT